DELTA 1 DEB, 10710

Orbit data source: Space-Track

DELTA 1 DEB, 10710 is space debris in LEO originally from a launch on Thu, 29 Jul 1976 UTC launched from the Air Force Western Test Range (AFWTR). Debris objects in space refer to the collection of defunct objects orbiting the Earth. Examples of debris include non-operational satellites, rocket bodies, and fragments generated from explosions, collisions, or faulty payload assembly.

Loading next visibility...
Identifier
10710, 1976-077AF
Orbit
LEO
Country
Flag of USUS
Related business
Manufacturer
Unknown
Mission
Spacecraft
Bus & Motor
Unknown
Mass
Unknown
Launch date (UTC)
1976-07-29 (49 years ago)
Launch vehicle
Unknown
Launch site
Air Force Western Test Range (AFWTR)
Object type
Payload
Rocket body
Debris
Shape & HBR
Unknown shape, 0.1 m
Radar Cross Section
Small (<0.1 m²)

Expand to show TLE details & history
Last TLE update: 3 days ago

TLE from 3 days ago
0 DELTA 1 DEB
1 10710U 76077AF  25305.07792273  .00000575  00000-0  69696-2 0  9993
2 10710 101.7679 118.2003 0255512  89.0417  31.6300 11.99198339125437
Epoch: 2025-11-01T01:52Z
TLE epoch observation values (Epoch: 2025-11-01T01:52:12.523Z)
Latitude
55.98305°
Longitude
-112.57772°
Altitude
1,519.616 km
Speed
7.187 km/s
True Right ascension
21h 04m 21s
True Declination
55° 50' 20"
Sunlit
Object was in daylight at epoch
Visualization orbit readout
Latitude
Unknown
Longitude
Unknown
Altitude
Unknown
Speed
Unknown
Apparent Right ascension
Unknown
Apparent Declination
Unknown
Sunlit
N/A
Visualization observer readout
Local Sidereal Time
10:38:44
Azimuth
Unknown
Elevation
Unknown
Doppler factor
Unknown
Orbital elements
Apogee altitude
1,888.012 km
Perigee altitude
1,476.116 km
Semi-major axis
8,060.201 km
Eccentricity
0.02555
Inclination
101.7679°
RAAN
118.2003°
Arg. of periapsis
89.0417°
True anomaly
33.20819°
Mean anomaly
31.63°
Eccentric anomaly
32.41476°
Mean motion
2.99933 °/min
Orbital period
120.03 mins
BSTAR
0.0069696
Loading maneuver chart data...
Computing Atmospheric mass density...
Loading historical data...
Loading historical data...
Loading historical data...
Loading historical data...
Loading historical data...
Loading historical data...
Loading historical data...

Documentation

Showing up to 5 results
|